| time (UTC) | temp F | wind direction | speed MPH | gust MPH | rain 1hr in | rain 24hr in | rain mn in | humidity % | barometer mb |
| 20260502204554 | 62 | 0.0 | 0.0 | 0.00 | 0.00 | 0.00 | 65 | 1014.3 | |
| 20260502203054 | 62 | 0.0 | 0.0 | 0.00 | 0.00 | 0.00 | 64 | 1014.3 | |
| 20260502201553 | 63 | 0.0 | 0.0 | 0.00 | 0.00 | 0.00 | 62 | 1014.4 | |
| 20260502200054 | 64 | 0.0 | 0.0 | 0.00 | 0.00 | 0.00 | 60 | 1014.7 | |
| 20260502194556 | 64 | 0.0 | 0.0 | 0.00 | 0.00 | 0.00 | 59 | 1014.7 | |
| 20260502193057 | 65 | 0.0 | 0.0 | 0.00 | 0.00 | 0.00 | 57 | 1014.6 | |
| 20260502191606 | 66 | 0.0 | 0.0 | 0.00 | 0.00 | 0.00 | 55 | 1014.6 | |
| 20260502190054 | 67 | 0.0 | 0.0 | 0.00 | 0.00 | 0.00 | 51 | 1014.7 | |
| 20260502184605 | 69 | 0.0 | 0.0 | 0.00 | 0.00 | 0.00 | 46 | 1014.5 | |
| 20260502183100 | 70 | 0.0 | 0.0 | 0.00 | 0.00 | 0.00 | 43 | 1014.5 | |
| 20260502181554 | 71 | 0.0 | 0.0 | 0.00 | 0.00 | 0.00 | 41 | 1014.6 | |
| 20260502180105 | 72 | 0.0 | 0.0 | 0.00 | 0.00 | 0.00 | 40 | 1014.7 | |
| 20260502163101 | 75 | 0.0 | 0.0 | 0.00 | 0.00 | 0.00 | 36 | 1015.1 | |
| 20260502161554 | 75 | 0.0 | 0.0 | 0.00 | 0.00 | 0.00 | 36 | 1015.3 | |
| 20260502151631 | 74 | 0.0 | 0.0 | 0.00 | 0.00 | 0.00 | 40 | 1015.8 | |
| 20260502123104 | 75 | 0.0 | 0.0 | 0.00 | 0.00 | 0.00 | 43 | 1017.8 | |
| 20260502121556 | 75 | 0.0 | 0.0 | 0.00 | 0.00 | 0.00 | 43 | 1018.1 | |
| 20260502114555 | 74 | 0.0 | 0.0 | 0.00 | 0.00 | 0.00 | 47 | 1018.6 | |
| 20260502113052 | 74 | 0.0 | 0.0 | 0.00 | 0.00 | 0.00 | 45 | 1018.8 | |
| 20260502111559 | 74 | 0.0 | 0.0 | 0.00 | 0.00 | 0.00 | 47 | 1018.9 | |
| 20260502110055 | 74 | 0.0 | 0.0 | 0.00 | 0.00 | 0.00 | 47 | 1019.2 | |
| 20260502104552 | 73 | 0.0 | 0.0 | 0.00 | 0.00 | 0.00 | 49 | 1019.3 | |
| 20260502103102 | 72 | 0.0 | 0.0 | 0.00 | 0.00 | 0.00 | 50 | 1019.5 | |
| 20260502101610 | 72 | 0.0 | 0.0 | 0.00 | 0.00 | 0.00 | 50 | 1019.7 | |
| 20260502100123 | 71 | 0.0 | 0.0 | 0.00 | 0.00 | 0.00 | 50 | 1019.8 | |
| 20260502090110 | 69 | 0.0 | 0.0 | 0.00 | 0.00 | 0.00 | 54 | 1020.2 | |
| 20260502070053 | 62 | 0.0 | 0.0 | 0.00 | 0.00 | 0.00 | 62 | 1020.9 | |
| 20260502064557 | 60 | 0.0 | 0.0 | 0.00 | 0.00 | 0.00 | 64 | 1020.9 | |
| 20260502063050 | 59 | 0.0 | 0.0 | 0.00 | 0.00 | 0.00 | 66 | 1021.0 | |
| 20260502061610 | 58 | 0.0 | 0.0 | 0.00 | 0.00 | 0.00 | 68 | 1021.1 | |
| 20260502060056 | 57 | 0.0 | 0.0 | 0.00 | 0.00 | 0.00 | 70 | 1021.3 | |
| 20260502054555 | 55 | 0.0 | 0.0 | 0.00 | 0.00 | 0.00 | 74 | 1021.5 | |
| 20260502053102 | 54 | 0.0 | 0.0 | 0.00 | 0.00 | 0.00 | 77 | 1021.6 | |
| 20260502051557 | 52 | 0.0 | 0.0 | 0.00 | 0.00 | 0.00 | 78 | 1021.7 | |
| 20260502050057 | 51 | 0.0 | 0.0 | 0.00 | 0.00 | 0.00 | 79 | 1021.6 | |
| 20260502044552 | 51 | 0.0 | 0.0 | 0.00 | 0.00 | 0.00 | 79 | 1021.9 | |
| 20260502043103 | 50 | 0.0 | 0.0 | 0.00 | 0.00 | 0.00 | 77 | 1022.2 | |
| 20260502041605 | 50 | 0.0 | 0.0 | 0.00 | 0.00 | 0.00 | 77 | 1022.3 | |
| 20260502040100 | 50 | 0.0 | 0.0 | 0.00 | 0.00 | 0.00 | 75 | 1022.4 | |
| 20260502034556 | 50 | 0.0 | 0.0 | 0.00 | 0.00 | 0.00 | 75 | 1022.6 | |
| 20260502033054 | 50 | 0.0 | 0.0 | 0.00 | 0.00 | 0.00 | 74 | 1022.7 | |
| 20260502031558 | 50 | 0.0 | 0.0 | 0.00 | 0.00 | 0.00 | 74 | 1022.9 | |
| 20260502030059 | 50 | 0.0 | 0.0 | 0.00 | 0.00 | 0.00 | 75 | 1022.9 | |
| 20260502024604 | 50 | 0.0 | 0.0 | 0.00 | 0.00 | 0.00 | 74 | 1023.2 | |
| 20260502023056 | 50 | 0.0 | 0.0 | 0.00 | 0.00 | 0.00 | 74 | 1023.4 | |
| 20260502021602 | 50 | 0.0 | 0.0 | 0.00 | 0.00 | 0.00 | 75 | 1023.6 | |
| 20260502020053 | 49 | 0.0 | 0.0 | 0.00 | 0.00 | 0.00 | 78 | 1023.8 | |
| 20260502014549 | 47 | 0.0 | 0.0 | 0.00 | 0.00 | 0.00 | 82 | 1023.9 | |
| 20260502013053 | 46 | 0.0 | 0.0 | 0.00 | 0.00 | 0.00 | 83 | 1024.0 | |
| 20260502011553 | 46 | 0.0 | 0.0 | 0.00 | 0.00 | 0.00 | 82 | 1024.2 | |
| 20260502010108 | 46 | 0.0 | 0.0 | 0.00 | 0.00 | 0.00 | 82 | 1024.3 | |
| 20260502004559 | 46 | 0.0 | 0.0 | 0.00 | 0.00 | 0.00 | 81 | 1024.4 | |
| 20260502003053 | 47 | 0.0 | 0.0 | 0.00 | 0.00 | 0.00 | 81 | 1024.4 | |
| 20260502001551 | 47 | 0.0 | 0.0 | 0.00 | 0.00 | 0.00 | 81 | 1024.4 | |
| 20260502000056 | 47 | 0.0 | 0.0 | 0.00 | 0.00 | 0.00 | 81 | 1024.6 | |
| 20260501234553 | 47 | 0.0 | 0.0 | 0.00 | 0.00 | 0.00 | 80 | 1024.7 | |
| 20260501233056 | 47 | 0.0 | 0.0 | 0.00 | 0.00 | 0.00 | 79 | 1024.8 | |
| 20260501231556 | 47 | 0.0 | 0.0 | 0.00 | 0.00 | 0.00 | 79 | 1024.9 | |
| 20260501230101 | 48 | 0.0 | 0.0 | 0.00 | 0.00 | 0.00 | 78 | 1025.1 | |
| 20260501224553 | 48 | 0.0 | 0.0 | 0.00 | 0.00 | 0.00 | 77 | 1025.2 | |
| 20260501223104 | 49 | 0.0 | 0.0 | 0.00 | 0.00 | 0.00 | 76 | 1025.3 | |
| 20260501221556 | 49 | 0.0 | 0.0 | 0.00 | 0.00 | 0.00 | 75 | 1025.3 | |
| 20260501220056 | 50 | 0.0 | 0.0 | 0.00 | 0.00 | 0.00 | 74 | 1025.3 | |
| 20260501214559 | 50 | 0.0 | 0.0 | 0.00 | 0.00 | 0.00 | 73 | 1025.4 | |
| 20260501213057 | 51 | 0.0 | 0.0 | 0.00 | 0.00 | 0.00 | 71 | 1025.6 | |
| 20260501211604 | 52 | 0.0 | 0.0 | 0.00 | 0.00 | 0.00 | 69 | 1025.9 | |
| 20260501210050 | 53 | 0.0 | 0.0 | 0.00 | 0.00 | 0.00 | 67 | 1025.9 |